HULIANWANG DIGUI-91

导读 | 豆包AI

HULIANWANG DIGUI-91是中国于2025年10月16日发射的低轨卫星,隶属于中国低轨互联网星座系统。该卫星旨在进一步完善星座网络布局,提升全球覆盖能力与通信服务性能,为全球用户提供高速率、低时延的卫星互联网接入服务,助力天地一体化信息网络建设,推动卫星互联网产业发展。

Basic Information
目录编号:
65999
目录名称:
HULIANWANG DIGUI-91
国际标识:
2025-231E
轨道中心:
EARTH
卫星名称:
HULIANWANG DIGUI-91
卫星全名:
HULIANWANG DIGUI-91
卫星状态:
在轨 (已飞行221 天)
发射日期:
2025-10-16 UTC
国别 :
中国 (CN)
星等 :
--
Orbit Information
数据来源 国际轨道数据 AOE轨道数据
星历时间 2026-05-24T08:10:50+0800
1天前
查看轨道信息
2026-05-23T08:00:00+0800
2天前
查看轨道信息
半长轴 7527.443km 7527.446km
偏心率 0.0000928 0.0000529
轨道倾角 50.002° 50.001°
近地点辐角 146.508° 147.733°
升交点赤经 262.375° 265.990°
平近点角 213.585° 67.772°
近地点 1148.607km 1148.91km
远地点 1150.005km 1149.708km
周期 108.326分钟 108.326分钟
每日圈数 13.293263 13.293256
Detailed Information
使用方式:
暂无
2D Orbit Map
3D Orbit Map
Orbit Altitude Analysis Chart
Orbit Inclination Analysis Chart
Orbit Comprehensive Analysis Chart
View Comprehensive Chart